N0JY-4 Weather Reports


Display with metric or nautical units.
time (UTC)temp
F
wind
direction
speed
MPH
gust
MPH
rain 1hr
in
rain 24hr
in
rain mn
in
humidity
%
barometer
mb
20180425121140 67 325 4.0 3.0 0.00 0.00 0.00 67 1018.7
20180425115640 67 293 9.0 7.0 0.00 0.00 0.00 69 1018.7
20180425114911 66 301 5.0 5.0 0.00 0.00 0.00 75 1018.3
20180425114144 67 13 3.0 0.0 0.00 0.00 0.00 73 1017.6
20180425113413 67 55 3.0 2.0 0.00 0.00 0.00 74 1017.4
20180425112647 67 66 2.0 2.0 0.00 0.00 0.00 74 1017.4
20180425111917 65 80 6.0 7.0 0.00 0.00 0.00 74 1017.4
20180425111151 67 114 2.0 2.0 0.00 0.00 0.00 75 1017.9
20180425110417 65 97 3.0 3.0 0.00 0.00 0.00 75 1017.8
20180425105650 67 91 3.0 3.0 0.00 0.00 0.00 75 1017.9
20180425103422 66 107 2.0 2.0 0.00 0.00 0.00 72 1017.9
20180425102656 67 150 0.0 0.0 0.00 0.00 0.00 73 1018.1
20180425101929 67 169 1.0 1.0 0.00 0.00 0.00 73 1017.9
20180425101159 66 107 3.0 3.0 0.00 0.00 0.00 73 1017.6
20180425100427 67 8 0.0 0.0 0.00 0.00 0.00 71 1017.7
20180425095700 68 8 0.0 0.0 0.00 0.00 0.00 72 1017.6
20180425094932 67 8 0.0 0.0 0.00 0.00 0.00 74 1017.6
20180425093433 67 8 0.0 0.0 0.00 0.00 0.00 74 1017.4
20180425092706 67 8 0.0 0.0 0.00 0.00 0.00 75 1017.6
20180425091939 68 8 0.0 0.0 0.00 0.00 0.00 74 1017.7
20180425091209 68 8 0.0 0.0 0.00 0.00 0.00 73 1017.7
20180425090438 67 8 0.0 0.0 0.00 0.00 0.00 73 1017.5
20180425085709 68 8 0.0 0.0 0.00 0.00 0.00 73 1017.4
20180425084941 67 8 0.0 0.0 0.00 0.00 0.00 72 1017.3
20180425084214 69 8 1.0 0.0 0.00 0.00 0.00 73 1017.4
20180425083443 69 17 3.0 2.0 0.00 0.00 0.00 72 1017.4
20180425082717 69 30 2.0 2.0 0.00 0.00 0.00 71 1017.6
20180425081950 70 34 0.0 0.0 0.00 0.00 0.00 69 1017.8
20180425081224 70 34 0.0 0.0 0.00 0.00 0.00 70 1017.8
20180425080451 69 34 0.0 0.0 0.00 0.00 0.00 70 1017.8
20180425075724 70 34 0.0 0.0 0.00 0.00 0.00 69 1017.7
20180425074958 71 37 2.0 3.0 0.00 0.00 0.00 69 1017.8
20180425074231 70 110 2.0 1.0 0.00 0.00 0.00 67 1017.7
20180425073458 70 86 3.0 1.0 0.00 0.00 0.00 67 1017.6
20180425072731 71 138 2.0 3.0 0.00 0.00 0.00 66 1017.8
20180425072004 70 107 3.0 3.0 0.00 0.00 0.00 66 1017.6
20180425071235 71 101 4.0 6.0 0.00 0.00 0.00 66 1017.4
20180425070502 71 94 4.0 4.0 0.00 0.00 0.00 66 1017.4
20180425065733 71 52 5.0 5.0 0.00 0.00 0.00 66 1017.4
20180425065007 70 20 4.0 2.0 0.00 0.00 0.00 66 1017.5
20180425064240 72 31 3.0 2.0 0.00 0.00 0.00 65 1017.8
20180425063507 73 3 4.0 4.0 0.00 0.00 0.00 65 1017.9
20180425062740 71 56 6.0 6.0 0.00 0.00 0.00 65 1017.4
20180425062013 71 79 5.0 4.0 0.00 0.00 0.00 66 1017.6
20180425061247 72 62 5.0 5.0 0.00 0.00 0.00 67 1017.7
20180425060520 72 97 6.0 6.0 0.00 0.00 0.00 66 1017.8
20180425055747 72 72 3.0 4.0 0.00 0.00 0.00 65 1018.1
20180425055021 73 56 3.0 2.0 0.00 0.00 0.00 64 1018.1
20180425054254 73 89 2.0 4.0 0.00 0.00 0.00 64 1018.4
20180425053519 73 115 5.0 7.0 0.00 0.00 0.00 63 1018.5
20180425052751 74 72 0.0 0.0 0.00 0.00 0.00 63 1019.1
20180425051258 74 197 3.0 2.0 0.00 0.00 0.00 63 1019.2
20180425050527 73 284 6.0 2.0 0.00 0.00 0.00 64 1019.6
20180425045757 73 248 1.0 3.0 0.00 0.00 0.00 64 1019.7
20180425045032 74 100 0.0 0.0 0.00 0.00 0.00 63 1019.2
20180425044256 74 100 0.0 0.0 0.00 0.00 0.00 63 1019.0
20180425043525 73 100 0.0 0.0 0.00 0.00 0.00 62 1018.9
20180425042758 74 100 0.0 0.0 0.00 0.00 0.00 62 1018.8
20180425041305 73 104 2.0 1.0 0.00 0.00 0.00 61 1018.5
20180425035808 73 75 4.0 3.0 0.00 0.00 0.00 61 1018.1
20180425035038 74 120 3.0 5.0 0.00 0.00 0.00 60 1018.2
20180425034311 73 94 4.0 3.0 0.00 0.00 0.00 60 1018.1
20180425033541 73 66 2.0 3.0 0.00 0.00 0.00 59 1018.0
20180425032814 74 68 4.0 3.0 0.00 0.00 0.00 59 1017.9
20180425032048 75 82 5.0 4.0 0.00 0.00 0.00 59 1017.8
20180425031321 75 84 4.0 5.0 0.00 0.00 0.00 59 1017.6
20180425030550 75 49 3.0 3.0 0.00 0.00 0.00 59 1017.6
20180425025824 75 44 3.0 3.0 0.00 0.00 0.00 58 1017.7
20180425025054 75 63 4.0 2.0 0.00 0.00 0.00 58 1017.6
20180425024327 75 55 2.0 2.0 0.00 0.00 0.00 59 1017.3
20180425023553 75 46 3.0 4.0 0.00 0.00 0.00 58 1017.2
20180425022825 75 14 4.0 2.0 0.00 0.00 0.00 57 1017.0
20180425022058 74 52 4.0 5.0 0.00 0.00 0.00 57 1017.0
20180425021333 75 62 4.0 3.0 0.00 0.00 0.00 56 1016.9
20180425020559 75 41 3.0 5.0 0.00 0.00 0.00 56 1016.7
20180425015834 75 27 4.0 2.0 0.00 0.00 0.00 55 1016.7
20180425015107 75 45 4.0 3.0 0.00 0.00 0.00 55 1016.5
20180425013607 77 27 4.0 3.0 0.00 0.00 0.00 54 1016.2
20180425012840 76 59 5.0 5.0 0.00 0.00 0.00 54 1016.1
20180425012113 77 25 4.0 4.0 0.00 0.00 0.00 53 1016.1
20180425005849 80 53 2.0 3.0 0.00 0.00 0.00 50 1015.7
20180425005122 79 18 4.0 2.0 0.00 0.00 0.00 48 1015.7
20180425004355 81 63 4.0 3.0 0.00 0.00 0.00 47 1015.8
20180425003625 82 68 4.0 4.0 0.00 0.00 0.00 45 1015.7
20180425002858 82 60 5.0 4.0 0.00 0.00 0.00 45 1015.8
20180425002129 81 75 6.0 7.0 0.00 0.00 0.00 44 1015.7
20180425001402 81 62 5.0 5.0 0.00 0.00 0.00 44 1015.6
20180425000630 82 68 8.0 8.0 0.00 0.00 0.00 43 1015.5
20180424235903 82 120 8.0 8.0 0.00 0.00 0.00 43 1015.5
20180424235136 81 91 6.0 6.0 0.00 0.00 0.00 42 1015.6
20180424234410 83 83 5.0 4.0 0.00 0.00 0.00 41 1015.7
20180424232146 84 51 7.0 7.0 0.00 0.00 0.00 40 1015.9
20180424231419 85 107 5.0 6.0 0.00 0.00 0.00 40 1015.9
20180424230647 83 89 8.0 7.0 0.00 0.00 0.00 39 1015.8
20180424225921 84 148 5.0 5.0 0.00 0.00 0.00 39 1015.9
20180424225154 85 87 6.0 5.0 0.00 0.00 0.00 39 1016.0
20180424224427 84 105 2.0 2.0 0.00 0.00 0.00 40 1016.1
20180424223655 84 107 8.0 7.0 0.00 0.00 0.00 39 1016.2
20180424222928 85 94 4.0 5.0 0.00 0.00 0.00 41 1016.5
20180424222201 83 39 6.0 3.0 0.00 0.00 0.00 40 1016.5
20180424221435 84 183 2.0 2.0 0.00 0.00 0.00 39 1016.5
20180424215937 84 93 7.0 6.0 0.00 0.00 0.00 39 1016.5
20180424215210 84 73 6.0 9.0 0.00 0.00 0.00 43 1016.3
20180424213713 84 103 7.0 8.0 0.00 0.00 0.00 38 1016.3
20180424212940 84 163 7.0 5.0 0.00 0.00 0.00 37 1016.3
20180424212214 85 143 9.0 7.0 0.00 0.00 0.00 38 1016.3
20180424211447 84 190 8.0 7.0 0.00 0.00 0.00 36 1016.3
20180424205948 84 183 6.0 10.0 0.00 0.00 0.00 40 1016.6
20180424205221 85 187 8.0 9.0 0.00 0.00 0.00 41 1016.6
20180424204454 85 132 6.0 6.0 0.00 0.00 0.00 39 1016.7
20180424203722 83 163 8.0 9.0 0.00 0.00 0.00 39 1016.8
20180424202954 83 149 9.0 8.0 0.00 0.00 0.00 38 1017.0
20180424202227 84 187 8.0 5.0 0.00 0.00 0.00 40 1017.0
20180424201501 82 139 7.0 8.0 0.00 0.00 0.00 37 1017.2
20180424200730 83 352 3.0 0.0 0.00 0.00 0.00 39 1017.4
20180424195237 85 91 3.0 0.0 0.00 0.00 0.00 40 1017.5
20180424194505 85 34 7.0 6.0 0.00 0.00 0.00 38 1017.6
20180424193735 84 193 1.0 3.0 0.00 0.00 0.00 38 1017.6
20180424193007 84 86 7.0 7.0 0.00 0.00 0.00 39 1017.7
20180424192240 84 84 4.0 8.0 0.00 0.00 0.00 39 1017.7
20180424191514 83 66 4.0 3.0 0.00 0.00 0.00 39 1017.7
20180424190737 84 108 7.0 9.0 0.00 0.00 0.00 38 1017.8
20180424185243 83 107 5.0 6.0 0.00 0.00 0.00 40 1017.9
20180424184515 83 62 6.0 6.0 0.00 0.00 0.00 36 1018.1
20180424183742 83 15 5.0 4.0 0.00 0.00 0.00 37 1018.2
20180424183016 82 146 4.0 2.0 0.00 0.00 0.00 37 1018.2
20180424182249 81 131 6.0 6.0 0.00 0.00 0.00 38 1018.3
20180424180752 82 53 3.0 2.0 0.00 0.00 0.00 44 1018.7
20180424180024 82 94 5.0 12.0 0.00 0.00 0.00 42 1018.7
20180424173758 80 62 3.0 5.0 0.00 0.00 0.00 43 1019.0
20180424172305 81 98 6.0 5.0 0.00 0.00 0.00 39 1019.2
20180424171537 81 104 7.0 5.0 0.00 0.00 0.00 44 1019.3
20180424170803 79 87 7.0 4.0 0.00 0.00 0.00 44 1019.5
20180424170036 80 128 5.0 6.0 0.00 0.00 0.00 44 1019.6
20180424165310 78 107 6.0 5.0 0.00 0.00 0.00 46 1019.5
20180424164543 80 136 6.0 9.0 0.00 0.00 0.00 44 1019.6
20180424163043 79 55 5.0 3.0 0.00 0.00 0.00 46 1019.6
20180424162316 78 70 4.0 4.0 0.00 0.00 0.00 45 1019.7
20180424161550 77 91 4.0 5.0 0.00 0.00 0.00 45 1020.0
20180424160818 78 135 6.0 7.0 0.00 0.00 0.00 48 1019.9
20180424160051 77 141 5.0 2.0 0.00 0.00 0.00 47 1019.9
20180424155324 77 80 3.0 6.0 0.00 0.00 0.00 51 1020.0
20180424154558 77 53 3.0 6.0 0.00 0.00 0.00 52 1020.0
20180424153826 74 91 2.0 6.0 0.00 0.00 0.00 52 1020.1
20180424153059 77 124 2.0 5.0 0.00 0.00 0.00 52 1020.2
20180424152330 76 120 2.0 4.0 0.00 0.00 0.00 54 1020.2
20180424151603 74 215 0.0 0.0 0.00 0.00 0.00 59 1020.3
20180424150828 73 191 0.0 1.0 0.00 0.00 0.00 62 1020.3
20180424145335 73 267 0.0 0.0 0.00 0.00 0.00 61 1020.4
20180424144608 72 257 3.0 1.0 0.00 0.00 0.00 60 1020.3
20180424143105 70 238 0.0 0.0 0.00 0.00 0.00 66 1020.2
20180424142337 68 238 0.0 0.0 0.00 0.00 0.00 70 1020.1
20180424141610 67 238 0.0 0.0 0.00 0.00 0.00 69 1020.1
20180424140837 66 238 0.0 0.0 0.00 0.00 0.00 75 1020.2
20180424140114 65 238 0.0 0.0 0.00 0.00 0.00 80 1020.1
20180424135339 64 238 0.0 0.0 0.00 0.00 0.00 82 1020.2
20180424134613 62 238 0.0 0.0 0.00 0.00 0.00 82 1020.1
20180424133112 61 238 0.0 0.0 0.00 0.00 0.00 85 1020.0
20180424132346 61 238 0.0 0.0 0.00 0.00 0.00 87 1019.7
20180424131618 60 238 0.0 0.0 0.00 0.00 0.00 88 1019.5
20180424130847 58 194 0.0 0.0 0.00 0.00 0.00 90 1019.4
20180424130121 60 214 2.0 1.0 0.00 0.00 0.00 90 1019.4
20180424125353 58 212 0.0 0.0 0.00 0.00 0.00 90 1019.1
20180424124627 60 316 0.0 0.0 0.00 0.00 0.00 90 1019.0
20180424123853 58 316 0.0 0.0 0.00 0.00 0.00 89 1019.1
20180424123125 59 316 0.0 0.0 0.00 0.00 0.00 90 1019.0